When you browse on this site, cookies collect data to enhance your experience and personalize the content and advertising you see.
Visit our Privacy Policy to learn more. By continuing to use the site, you agree to this use of cookies and data.
  • In United Kingdom
  • List of Countries
  • For 7 days
  • Water Temperature
  • Weather Map
  • Weather Widgets
  • user-avatar
    Login

    Hourly Weather Zukow

    Today, 21 October, Monday

    Time Temperature Precipitation Wind Pressure Humidity
    00:00 +14°C° 0 mm 2 mps 748 mmHg 77%
    01:00 +14°C° 0 mm 2 mps 748 mmHg 79%
    02:00 +14°C° 0 mm 2 mps 749 mmHg 81%
    03:00 +14°C° 0 mm 2 mps 748 mmHg 83%
    04:00 +13°C° 0 mm 2 mps 748 mmHg 85%
    05:00 +13°C° 0 mm 2 mps 748 mmHg 86%
    06:00 +13°C° 0 mm 2 mps 748 mmHg 86%
    07:00 +13°C° 0 mm 2 mps 749 mmHg 87%
    08:00 +13°C° 0 mm 2 mps 749 mmHg 82%
    09:00 +15°C° 0 mm 2 mps 749 mmHg 75%
    10:00 +17°C° 0 mm 2 mps 749 mmHg 68%
    11:00 +18°C° 0 mm 2 mps 749 mmHg 61%
    12:00 +20°C° 0 mm 1 mps 750 mmHg 58%
    13:00 +21°C° 0 mm 1 mps 750 mmHg 54%
    14:00 +22°C° 0 mm 1 mps 750 mmHg 52%
    15:00 +21°C° 0 mm 1 mps 750 mmHg 56%
    16:00 +20°C° 0 mm 1 mps 750 mmHg 61%
    17:00 +17°C° 0 mm 0 mps 750 mmHg 65%
    18:00 +17°C° 0 mm 0 mps 750 mmHg 68%
    19:00 +16°C° 0 mm 0 mps 751 mmHg 71%
    20:00 +15°C° 0 mm 0 mps 751 mmHg 74%
    21:00 +15°C° 0 mm 0 mps 751 mmHg 75%
    22:00 +14°C° 0 mm 0 mps 751 mmHg 77%
    23:00 +15°C° 0 mm 1 mps 751 mmHg 78%

    Tomorrow, 22 October, Tuesday

    Time Temperature Precipitation Wind Pressure Humidity
    00:00 +15°C° 0 mm 1 mps 751 mmHg 79%
    01:00 +14°C° 0 mm 1 mps 751 mmHg 80%
    02:00 +14°C° 0 mm 1 mps 751 mmHg 82%
    03:00 +14°C° 0 mm 1 mps 751 mmHg 83%
    04:00 +14°C° 0 mm 1 mps 751 mmHg 84%
    05:00 +13°C° 0 mm 1 mps 751 mmHg 85%
    06:00 +13°C° 0 mm 1 mps 752 mmHg 85%
    07:00 +13°C° 0 mm 1 mps 752 mmHg 84%
    08:00 +13°C° 0 mm 1 mps 752 mmHg 84%
    09:00 +15°C° 0 mm 1 mps 752 mmHg 77%
    10:00 +18°C° 0 mm 1 mps 752 mmHg 69%
    11:00 +19°C° 0 mm 2 mps 752 mmHg 62%
    12:00 +21°C° 0 mm 1 mps 752 mmHg 59%
    13:00 +22°C° 0 mm 1 mps 752 mmHg 56%
    14:00 +23°C° 0 mm 1 mps 752 mmHg 53%
    15:00 +22°C° 0 mm 1 mps 752 mmHg 57%
    16:00 +20°C° 0 mm 1 mps 751 mmHg 62%
    17:00 +19°C° 0 mm 1 mps 751 mmHg 66%
    18:00 +19°C° 0 mm 1 mps 751 mmHg 69%
    19:00 +18°C° 0 mm 1 mps 751 mmHg 73%
    20:00 +16°C° 0 mm 1 mps 751 mmHg 76%
    21:00 +16°C° 0 mm 1 mps 751 mmHg 77%
    22:00 +15°C° 0 mm 1 mps 751 mmHg 79%
    23:00 +15°C° 0 mm 1 mps 751 mmHg 81%

    Day after tomorrow, 23 October, Wednesday

    Time Temperature Precipitation Wind Pressure Humidity
    00:00 +15°C° 0 mm 1 mps 751 mmHg 82%
    01:00 +14°C° 0 mm 2 mps 751 mmHg 84%
    02:00 +14°C° 0 mm 2 mps 751 mmHg 86%
    03:00 +14°C° 0 mm 2 mps 751 mmHg 87%
    04:00 +13°C° 0 mm 2 mps 751 mmHg 89%
    05:00 +13°C° 0 mm 2 mps 751 mmHg 91%
    06:00 +13°C° 0 mm 2 mps 751 mmHg 92%
    07:00 +13°C° 0 mm 2 mps 751 mmHg 94%
    08:00 +13°C° 0 mm 2 mps 751 mmHg 95%
    09:00 +15°C° 0 mm 2 mps 751 mmHg 88%
    10:00 +16°C° 0 mm 2 mps 751 mmHg 82%
    11:00 +18°C° 0 mm 2 mps 751 mmHg 75%
    12:00 +18°C° 0 mm 2 mps 751 mmHg 71%
    13:00 +19°C° 0 mm 2 mps 751 mmHg 67%
    14:00 +20°C° 0 mm 2 mps 751 mmHg 62%
    15:00 +19°C° 0 mm 2 mps 751 mmHg 65%
    16:00 +18°C° 0 mm 2 mps 751 mmHg 68%
    17:00 +17°C° 0 mm 2 mps 750 mmHg 72%
    18:00 +16°C° 0 mm 2 mps 750 mmHg 75%
    19:00 +16°C° 0 mm 2 mps 751 mmHg 78%
    20:00 +15°C° 0 mm 2 mps 751 mmHg 81%
    21:00 +14°C° 0 mm 2 mps 751 mmHg 83%
    22:00 +14°C° 0 mm 2 mps 751 mmHg 86%
    23:00 +13°C° 0 mm 2 mps 751 mmHg 88%

    24 October, Thursday

    Time Temperature Precipitation Wind Pressure Humidity
    00:00 +13°C° 0 mm 2 mps 751 mmHg 90%
    01:00 +13°C° 0 mm 2 mps 750 mmHg 92%
    02:00 +12°C° 0 mm 2 mps 750 mmHg 94%
    03:00 +12°C° 0 mm 2 mps 750 mmHg 94%
    04:00 +11°C° 0 mm 3 mps 750 mmHg 95%
    05:00 +11°C° 0 mm 3 mps 750 mmHg 96%
    06:00 +11°C° 0 mm 3 mps 749 mmHg 96%
    07:00 +11°C° 0 mm 3 mps 749 mmHg 95%
    08:00 +11°C° 0 mm 3 mps 749 mmHg 95%
    09:00 +13°C° 0 mm 4 mps 749 mmHg 88%
    10:00 +15°C° 0 mm 4 mps 749 mmHg 80%
    11:00 +18°C° 0 mm 4 mps 749 mmHg 73%
    12:00 +19°C° 0 mm 5 mps 748 mmHg 69%
    13:00 +20°C° 0 mm 5 mps 748 mmHg 64%
    14:00 +21°C° 0 mm 5 mps 748 mmHg 60%
    15:00 +20°C° 0 mm 4 mps 748 mmHg 64%
    16:00 +19°C° 0 mm 4 mps 747 mmHg 68%
    17:00 +18°C° 0 mm 3 mps 747 mmHg 72%
    18:00 +18°C° 0 mm 4 mps 747 mmHg 75%
    19:00 +17°C° 0 mm 4 mps 747 mmHg 78%
    20:00 +15°C° 0 mm 4 mps 747 mmHg 81%
    21:00 +15°C° 0 mm 4 mps 747 mmHg 82%
    22:00 +14°C° 0 mm 4 mps 747 mmHg 82%
    23:00 +14°C° 0 mm 3 mps 747 mmHg 83%

    25 October, Friday

    Time Temperature Precipitation Wind Pressure Humidity
    00:00 +13°C° 0 mm 3 mps 747 mmHg 83%
    01:00 +13°C° 0 mm 3 mps 747 mmHg 84%
    02:00 +13°C° 0 mm 3 mps 747 mmHg 84%
    03:00 +12°C° 0 mm 3 mps 747 mmHg 84%
    04:00 +13°C° 0 mm 2 mps 747 mmHg 85%
    05:00 +12°C° 0 mm 2 mps 747 mmHg 85%
    06:00 +12°C° 0 mm 2 mps 747 mmHg 84%
    07:00 +12°C° 0 mm 2 mps 748 mmHg 83%
    08:00 +12°C° 0 mm 2 mps 748 mmHg 82%
    09:00 +14°C° 0 mm 2 mps 748 mmHg 73%
    10:00 +17°C° 0 mm 2 mps 749 mmHg 64%
    11:00 +19°C° 0 mm 2 mps 749 mmHg 55%
    12:00 +20°C° 0 mm 2 mps 749 mmHg 52%
    13:00 +21°C° 0 mm 3 mps 749 mmHg 50%
    14:00 +22°C° 0 mm 3 mps 749 mmHg 47%
    15:00 +20°C° 0 mm 3 mps 749 mmHg 52%
    16:00 +19°C° 0 mm 3 mps 749 mmHg 58%
    17:00 +18°C° 0 mm 2 mps 749 mmHg 63%
    18:00 +17°C° 0 mm 2 mps 749 mmHg 69%
    19:00 +16°C° 0 mm 2 mps 750 mmHg 74%
    20:00 +15°C° 0 mm 2 mps 750 mmHg 80%
    21:00 +15°C° 0 mm 1 mps 750 mmHg 83%
    22:00 +14°C° 0 mm 1 mps 750 mmHg 87%
    23:00 +14°C° 0 mm 1 mps 750 mmHg 90%

    26 October, Saturday

    Time Temperature Precipitation Wind Pressure Humidity
    00:00 +13°C° 0 mm 1 mps 750 mmHg 91%
    01:00 +13°C° 0 mm 1 mps 750 mmHg 92%
    02:00 +13°C° 0 mm 1 mps 750 mmHg 92%
    03:00 +12°C° 0 mm 1 mps 750 mmHg 93%
    04:00 +11°C° 0 mm 0 mps 750 mmHg 93%
    05:00 +11°C° 0 mm 0 mps 750 mmHg 93%
    06:00 +12°C° 0 mm 1 mps 749 mmHg 93%
    07:00 +12°C° 0 mm 1 mps 749 mmHg 94%
    08:00 +12°C° 0 mm 2 mps 749 mmHg 94%
    09:00 +14°C° 0 mm 2 mps 749 mmHg 86%
    10:00 +16°C° 0 mm 3 mps 749 mmHg 79%
    11:00 +17°C° 0 mm 3 mps 749 mmHg 71%
    12:00 +18°C° 0 mm 3 mps 749 mmHg 66%
    13:00 +19°C° 0 mm 3 mps 748 mmHg 61%
    14:00 +20°C° 0 mm 4 mps 748 mmHg 56%
    15:00 +19°C° 0 mm 3 mps 747 mmHg 59%
    16:00 +18°C° 0 mm 3 mps 747 mmHg 63%
    17:00 +17°C° 0 mm 3 mps 746 mmHg 66%
    18:00 +16°C° 0 mm 3 mps 746 mmHg 69%
    19:00 +16°C° 0 mm 3 mps 747 mmHg 71%
    20:00 +14°C° 0 mm 3 mps 747 mmHg 73%
    21:00 +14°C° 0 mm 3 mps 747 mmHg 76%
    22:00 +14°C° 0 mm 3 mps 747 mmHg 79%
    23:00 +13°C° 0 mm 3 mps 747 mmHg 82%

    27 October, Sunday

    Time Temperature Precipitation Wind Pressure Humidity
    00:00 +13°C° 0 mm 3 mps 747 mmHg 84%
    01:00 +13°C° 0 mm 3 mps 746 mmHg 87%
    02:00 +12°C° 0 mm 3 mps 746 mmHg 89%
    03:00 +12°C° 0 mm 3 mps 746 mmHg 89%
    04:00 +12°C° 0 mm 4 mps 745 mmHg 89%
    05:00 +12°C° 0 mm 4 mps 745 mmHg 89%
    06:00 +12°C° 0 mm 4 mps 745 mmHg 87%
    07:00 +12°C° 0 mm 5 mps 745 mmHg 85%
    08:00 +13°C° 0 mm 6 mps 746 mmHg 82%
    09:00 +11°C° 0.1 mm 6 mps 746 mmHg 79%
    10:00 +10°C° 0.1 mm 6 mps 747 mmHg 75%
    11:00 +9°C° 0.1 mm 6 mps 747 mmHg 72%
    12:00 +10°C° 0 mm 6 mps 748 mmHg 64%
    13:00 +10°C° 0 mm 6 mps 748 mmHg 56%
    14:00 +10°C° 0 mm 6 mps 748 mmHg 48%
    15:00 +9°C° 0 mm 5 mps 749 mmHg 49%
    16:00 +8°C° 0 mm 5 mps 749 mmHg 49%
    17:00 +8°C° 0 mm 4 mps 749 mmHg 50%
    18:00 +7°C° 0 mm 4 mps 749 mmHg 52%
    19:00 +7°C° 0 mm 4 mps 749 mmHg 55%
    20:00 +6°C° 0 mm 4 mps 750 mmHg 58%
    21:00 +6°C° 0 mm 4 mps 750 mmHg 60%
    22:00 +6°C° 0 mm 4 mps 750 mmHg 62%
    23:00 +5°C° 0 mm 4 mps 750 mmHg 64%
    Show more